Other Public Products
Issued by NWS Grand Forks, ND

Current Version | Previous Version | Text Only | Print | Product List | Glossary On
Versions: 1 2 3 4 5 6 7 8 9 10 11 12 13 14 15 16 17 18 19 20 21 22 23 24 25 26 27 28 29 30 31 32 33 34 35 36 37 38 39 40 41 42 43 44 45 46 47 48 49 50
000
FPUS83 KFGF 271131
OPUFGF
PRAIRIE TO PINES WEATHER ROUNDUP
NATIONAL WEATHER SERVICE EASTERN NORTH DAKOTA/GRAND FORKS ND
600 AM CDT MON MAR 27 2017

 **SATELLITE DATA USED TO AUGMENT SKY COVER AT AUTOMATED STATIONS**
 *****  WEATHER ACROSS EASTERN NORTH DAKOTA  *****

CITY           SKY/WX    TMP DP  RH WIND       PRES   REMARKS
GRAND FORKS    FOG       38  38 100 CALM      29.96S VSB 1/4
GRAND FORKS AF FOG       36  36 100 CALM      29.97R VSB 1/2
GRAND CITY NWS NOT AVBL
BUXTON         NOT AVBL
DEVILS LAKE    CLOUDY    30  30 100 SE6       29.92S WCI  24
FARGO          MOCLDY    33  32  96 CALM      29.95S FOG
WAHPETON ARPT    N/A     32  32 100 CALM      29.96R
$$

 *****  WEATHER ACROSS CENTRAL AND WESTERN NORTH DAKOTA  *****

CITY           SKY/WX    TMP DP  RH WIND       PRES   REMARKS
JAMESTOWN      FOG       27  26  96 CALM      29.92S VSB 1/4
BISMARCK       MOCLDY    32  30  92 CALM      29.91R
MINOT          MOCLDY    37  33  85 SW5       29.86S
MINOT AFB      FAIR      32  30  95 NW3       29.86S
GARRISON         N/A     32  29  88 CALM      29.86F
WILLISTON      FAIR      32  28  85 NE6       29.87F
DICKINSON      FAIR      34  30  85 S3        29.85S
HETTINGER      FAIR      30  28  92 CALM      29.90R FOG
$$

 *****  OTHER OBSERVATIONS NORTHEAST NORTH DAKOTA  *****

CITY           SKY/WX    TMP DP  RH WIND       PRES   REMARKS
WALHALLA       NOT AVBL
LANGDON        FOG       32  32 100 E8        29.93S VSB 1/2 WCI  25
CAVALIER       FOG       32  32 100 CALM      29.95F VSB<1/4
GRAFTON        FOG       32  32 100 NE5       29.99R VSB 1/4
CANDO          NOT AVBL
FORT TOTTEN      N/A     38  38 100 SE6       29.95S
ROLLA          CLOUDY    34  34 100 SW12      29.88F
RUGBY          NOT AVBL
 ***** THE ABOVE OBSERVATIONS ARE NON NWS ARE NOT QUALITY
        CONTROLLED AND MAY MIS-REPORT RAIN FOR SNOW...
$$

 *****  OTHER OBSERVATIONS SOUTHEAST NORTH DAKOTA *****

CITY           SKY/WX    TMP DP  RH WIND       PRES   REMARKS
COOPERSTOWN    FOG       28  28 100 CALM      29.95R VSB<1/4
VALLEY CITY    FOG       28  28 100 CALM      29.95S VSB<1/4
OAKES          NOT AVBL
GWINNER        MOSUNNY   32  32 100 MISG      29.94R
SHEYENNE NWR     N/A     31  31 100 CALM      29.95S
BUFFALO        NOT AVBL
WYNDMERE         N/A     34  34 100 SE1         N/A
 ***** THE ABOVE OBSERVATIONS ARE NON NWS ARE NOT QUALITY
       CONTROLLED AND MAY MIS-REPORT RAIN FOR SNOW...
$$

  *****  WEATHER ACROSS NORTHERN MINNESOTA  *****

CITY           SKY/WX    TMP DP  RH WIND       PRES   REMARKS
FLAG ISLAND    FAIR      28  27  93 W3        29.96R
WARROAD        FAIR      27  23  86 CALM      29.96S FOG
ROSEAU         FAIR      27  23  86 CALM      29.96R FOG
HALLOCK        FOG       30  30 100 NW3       29.98R VSB 1/4
THF RVR FALLS  FOG       29  28  96 S3        29.97  VSB 1/4
HALSTAD          N/A     29  28  96 CALM        N/A
FOSSTON        FOG       30  28  93 CALM      29.96S VSB<1/4
BAUDETTE       FOG       28  26  92 CALM      29.95S VSB 1/4
WASKISH        FAIR      27  27 100 CALM      29.96R
CROOKSTON      FOG       32  32 100 CALM      29.98S VSB<1/4
$$
  *****  WEATHER ACROSS CENTRAL AND WEST MINNESOTA  *****

CITY           SKY/WX    TMP DP  RH WIND       PRES   REMARKS
BEMIDJI        FOG       31  31  99 CALM      29.94S VSB 1/4
PARK RAPIDS    CLOUDY    34  29  82 CALM      29.93S
WADENA         FAIR      32  30  93 CALM      29.95R FOG
DETROIT LAKES  FAIR      36  34  93 CALM      29.95S FOG
MOORHEAD       FAIR      34  32  93 CALM      29.97R FOG
FERGUS FALLS   CLOUDY    34  34 100 CALM      29.99S
ELBOW LAKE     CLOUDY    32  32 100 CALM      29.96R FOG
MORRIS MN      CLOUDY    32  32 100 CALM      29.94F FOG
STAPLES        FAIR      34  32  93 CALM      29.95S
WHEATON        FAIR      32  30  93 W3        29.99R
$$
  *****  WEATHER ELSEWHERE ACROSS MINNESOTA  *****

CITY           SKY/WX    TMP DP  RH WIND       PRES   REMARKS
DULUTH         CLOUDY    32  32 100 W3        29.93R
INTRNTL FALLS  FAIR      26  23  88 CALM      29.95S
ELY            FAIR      30  28  93 CALM      29.93S
CLOQUET        MOCLDY    30  28  93 CALM      29.94R
BRAINERD       FAIR      32  30  92 CALM      29.95S
HIBBING        CLOUDY    30  30 100 CALM      29.93R
ALEXANDRIA     CLOUDY    36  33  89 CALM      29.95R
SAINT CLOUD    CLOUDY    34  34 100 CALM      29.96S
MINNEAPOLIS    CLOUDY    38  34  85 N7        29.96S
$$

  *****  WEATHER ACROSS SOUTH DAKOTA  *****

CITY           SKY/WX    TMP DP  RH WIND       PRES   REMARKS
SIOUX FALLS    CLOUDY    40  38  93 NE3       29.95S
BROOKINGS      FOG       30  30 100 E3        29.94S VSB 1/2
WATERTOWN      CLOUDY    36  34  92 E3        29.92S
HURON          CLOUDY    38  36  92 S3        29.94R
SISSETON         N/A     34  34 100 E3        29.94R
ABERDEEN       CLOUDY    35  32  88 NE6       29.93S
MITCHELL       FAIR      30  30 100 CALM      29.96S FOG
PIERRE         CLOUDY    40  38  93 CALM      29.91S
MOBRIDGE       FAIR      32  29  88 CALM      29.89S
RAPID CITY     FAIR      27  26  96 CALM      29.88F FOG
$$

  *****  SOME WEATHER IN NEARBY STATES *****

CITY           SKY/WX    TMP DP  RH WIND       PRES   REMARKS
GLASGOW MT     CLOUDY    37  24  59 E10       29.84S
GREAT FALLS MT MOCLDY    39  29  67 SW8       29.79S
CHEYENNE WY    FAIR      31  28  89 W8        29.92S WCI  23
SCOTTSBLUFF NE CLOUDY    26  24  92 NE6       29.90F FOG     WCI  19
OMAHA NE       CLOUDY    45  41  86 N6        29.94R
DES MOINES IA  CLOUDY    44  41  89 N8        29.93S
DAVENPORT IA   FOG       46  45  96 N7        29.91S VSB 1/2
CHICAGO IL     DRIZZLE   50  48  93 NW7       29.90R FOG
EAU CLAIRE WI  CLOUDY    37  35  92 N5        29.92F
LA CROSSE WI   CLOUDY    42  41  96 CALM      29.92S FOG
$$

  *****  SOME NATIONAL WEATHER *****

CITY           SKY/WX    TMP DP  RH WIND       PRES   REMARKS
LA GUARDIA NY  LGT RAIN  40  37  89 NE12      30.14F VSB 1/2
RALEIGH NC     MOCLDY    60  55  83 SW8       30.14R
ATLANTA GA     MOCLDY    60  58  92 S5        30.07R
NEW ORLEANS LA MOCLDY    71  68  90 S7        29.98R
OKLAHOMA CITY  CLOUDY    52  48  86 N22       29.84R
ALBUQUERQUE NM FAIR      42  24  49 E7        30.00F
SALT LAKE CITY CLOUDY    48  37  65 E6        29.87F
LOS ANGELES CA FAIR      55  53  93 CALM      30.01F
BOISE ID       CLOUDY    43  38  82 SE10      29.89S
SEATTLE WA     MOCLDY    44  42  93 S9        29.90R
$$

*** WEATHER ACROSS MANITOBA...SASKATCHEWAN AND ONTARIO ***
                ***ONTARIO***

CITY           SKY/WX    TMP DP  RH WIND       PRES   REMARKS
GERALDTON      PTCLDY    21  19  93 NW2       29.87R
THUNDER BAY    MOCLDY    30  30 100 SW6       29.93R FOG     WCI  24
SIOUX LOOKOUT  PTCLDY    21  19  93 N2        29.95R
TORONTO        FOG       43  43 100 SE3       29.87R VSB 3/4
BIG TROUT LK   CLOUDY    27  25  93 N7        29.97R WCI  19
PICKLE LAKE    PTCLDY    25  23  93 VRB2      29.94
DRYDEN         CLEAR     27  25  93 N2        29.95R
KENORA         PTCLDY    32  30  93 NE5       29.95S
$$
                *** MANITOBA***

CITY           SKY/WX    TMP DP  RH WIND       PRES   REMARKS
BRANDON        MOCLDY    34  32  93 E13       29.93R WCI  25
DAUPHIN        CLOUDY    32  32 100 NE5       29.99R
ISLAND LAKE    FLURRIES  23  18  80 NW6       30.05R WCI  16
PILOT MOUND      N/A     34  32  93 SE14        N/A  WCI  24
THE PAS        PTCLDY    16  14  93 E3        30.08R
THOMPSON       CLOUDY    18  12  79 N5        30.13R WCI  11
WINNIPEG       CLOUDY    32  28  86 E3        29.98
LYNN LAKE      CLOUDY     5   3  92 CALM      30.13R
CHURCHILL      FLURRIES  10   7  85 N16       30.15R WCI  -7
GILLAM         FLURRIES   7   3  85 NW7       30.10R WCI  -5
$$
                ***SASKATCHEWAN***

CITY           SKY/WX    TMP DP  RH WIND       PRES   REMARKS
ESTEVAN        FOG       27  27 100 CALM      29.89R VSB 1/2
KINDERSLEY     FOG       28  28 100 E13       29.86R VSB 1/4 WCI  18
LLOYDMINSTER   MOCLDY    28  28 100 SE10G17   29.87S WCI  19
PRINCE ALBERT  MOCLDY    19  18  93 E8        30.00R WCI   9
REGINA         FOG       28  28 100 N6        29.90R VSB 1/4 WCI  22
YORKTON        HVY SNOW  32  30  93 NE8       29.93R VS


USA.gov is the U.S. government's official web portal to all federal, state and local government web resources and services.